Location: Unspecified
(0.0000°N, 0.0000°E)
Time: 12:26:21
(UTC+00:00)

O/OREOS (USA 219) - Visible Passes

Search period start: 17 July 2024 00:00
Search period end: 27 July 2024 00:00
Orbit: 593 x 618 km, 72.0° (Epoch: 17 July)

Date Brightness Start Highest point End Pass type
(mag) Time Alt. Az. Time Alt. Az. Time Alt. Az.
17 Jul ? 19:15:21 10° SW 19:19:13 32° WNW 19:23:05 10° NNW visible
18 Jul ? 19:29:55 10° WSW 19:32:15 14° WNW 19:34:35 10° NW visible
21 Jul ? 18:29:04 10° SW 18:32:46 28° WNW 18:36:28 10° NNW visible
22 Jul ? 04:57:53 10° NE 05:00:46 17° ENE 05:03:39 10° ESE visible
22 Jul ? 18:44:01 10° W 18:45:46 12° WNW 18:47:33 10° NW visible
23 Jul ? 05:09:41 10° N 05:13:47 38° ENE 05:17:52 10° SE visible
24 Jul ? 05:22:21 10° NNW 05:26:46 88° WSW 05:31:10 10° SSE visible
25 Jul ? 05:35:41 10° NW 05:39:45 36° WSW 05:43:48 10° S visible
26 Jul ? 04:11:00 10° NNE 04:14:13 20° ENE 04:17:24 10° ESE visible
